Bismarck, ND

10:54 PM CDT on July 21, 2017 (GMT -0500)
Bismarck Municipal

Weather History for KBIS - January, 2012

Change the Weather History Date:

Friday, January 13, 2012

  Actual Average Record
Temperature  
Mean Temperature 18 °F 12 °F  
Max Temperature 34 °F 23 °F 52 °F (1901)
Min Temperature 2 °F 2 °F -45 °F (1916)
Degree Days  
Heating Degree Days 47 53  
Month to date heating degree days 474 684  
Since 1 July heating degree days 3436 4184  
Cooling Degree Days 0 0  
Month to date cooling degree days 0 0  
Year to date cooling degree days 0 0  
Moisture  
Dew Point 17 °F    
Average Humidity 77    
Maximum Humidity 92    
Minimum Humidity 61    
Precipitation  
Precipitation 0.02 in 0.01 in 0.22 in (1967)
Month to date precipitation 0.04 0.20  
Year to date precipitation 0.04 0.20  
Snow  
Snow 0.30 in 0.30 in 5.40 in (2009)
Month to date snowfall 0.4 4.2  
Since 1 July snowfall 4.3 24.7  
Snow Depth 0.00 in    
Sea Level Pressure  
Sea Level Pressure 29.94 in    
Wind  
Wind Speed 4 mph (West)    
Max Wind Speed 17 mph    
Max Gust Speed 23 mph    
Visibility 8 miles    
Events Snow    
T = Trace of Precipitation, MM = Missing Value Source: NWS Daily Summary

Daily Weather History Graph

Daily Weather History Graph

Search for Another Location

Airport or City:

Trip Planner

Search our weather history database for the weather conditions in past years. The results will help you decide how hot, cold, wet, or windy it might be!

Date:

Astronomy

Jan. 13, 2012 Rise Set
Actual Time 8:24 AM CST 5:18 PM CST
Civil Twilight 7:50 AM CST 5:52 PM CST
Nautical Twilight 7:12 AM CST 6:30 PM CST
Astronomical Twilight 6:36 AM CST 7:07 PM CST
Moon 10:57 PM CST (1/13) 10:19 AM CST (1/13)
Length of Visible Light 10h 02m
Length of Day
8h 53m
Waning Gibbous, 78% of the Moon is Illuminated
Jan 13
Waning Gibbous
Jan 16
Last Quarter
Jan 23
New
Jan 30
First Quarter
Feb 7
Full

Hourly Weather History & Observations

Time (CST) Temp. Windchill Dew Point Humidity Pressure Visibility Wind Dir Wind Speed Gust Speed Precip Events Conditions
12:52 AM 3.0 °F - -2.9 °F 76% 30.10 in 10.0 mi Calm Calm - N/A   Clear
1:52 AM 8.1 °F - 1.0 °F 73% 30.09 in 10.0 mi Calm Calm - N/A   Overcast
2:52 AM 10.9 °F - 1.0 °F 64% 30.09 in 10.0 mi Calm Calm - N/A   Overcast
3:52 AM 12.9 °F - 3.9 °F 67% 30.06 in 10.0 mi Calm Calm - N/A   Overcast
4:20 AM 14.0 °F - 5.0 °F 67% 29.95 in 10.0 mi Calm Calm - N/A   Overcast
4:52 AM 14.0 °F - 8.1 °F 77% 30.04 in 10.0 mi Calm Calm - N/A   Overcast
5:52 AM 16.0 °F - 9.0 °F 74% 30.03 in 10.0 mi Calm Calm - N/A   Overcast
6:06 AM 15.8 °F - 10.4 °F 79% 29.92 in 10.0 mi Calm Calm - N/A   Overcast
6:52 AM 17.1 °F - 12.0 °F 81% 30.02 in 10.0 mi Calm Calm - N/A   Overcast
7:52 AM 16.0 °F - 12.0 °F 84% 30.01 in 10.0 mi Calm Calm - N/A   Overcast
8:52 AM 14.0 °F 8.2 °F 10.0 °F 84% 30.00 in 10.0 mi ESE 3.5 mph - N/A   Mostly Cloudy
9:52 AM 19.0 °F - 14.0 °F 81% 29.99 in 10.0 mi Calm Calm - N/A   Overcast
10:52 AM 25.0 °F 20.7 °F 18.0 °F 75% 29.96 in 10.0 mi SSW 3.5 mph - N/A   Mostly Cloudy
11:52 AM 28.0 °F 20.8 °F 19.9 °F 72% 29.93 in 10.0 mi SW 6.9 mph - N/A   Partly Cloudy
12:52 PM 30.0 °F 23.2 °F 21.0 °F 69% 29.88 in 10.0 mi SSE 6.9 mph - N/A   Partly Cloudy
1:52 PM 30.9 °F 24.3 °F 21.0 °F 67% 29.85 in 10.0 mi SSE 6.9 mph - N/A   Partly Cloudy
2:52 PM 33.1 °F 26.1 °F 21.0 °F 61% 29.83 in 10.0 mi SSW 8.1 mph - N/A   Partly Cloudy
3:52 PM 32.0 °F 26.4 °F 23.0 °F 69% 29.84 in 10.0 mi SSE 5.8 mph - N/A   Mostly Cloudy
4:52 PM 28.9 °F 21.9 °F 21.9 °F 75% 29.86 in 10.0 mi SSW 6.9 mph - N/A   Clear
5:52 PM 28.0 °F 24.2 °F 21.0 °F 75% 29.87 in 10.0 mi WSW 3.5 mph - N/A   Clear
6:52 PM 27.0 °F - 21.0 °F 78% 29.89 in 10.0 mi Calm Calm - N/A   Overcast
7:52 PM 28.0 °F 20.0 °F 21.0 °F 75% 29.91 in 10.0 mi WNW 8.1 mph - N/A   Overcast
8:52 PM 28.0 °F 18.6 °F 21.0 °F 75% 29.93 in 10.0 mi WNW 10.4 mph - N/A   Overcast
9:52 PM 28.9 °F 20.4 °F 25.0 °F 85% 29.94 in 3.0 mi WNW 9.2 mph - 0.00 in Snow Light Snow
10:20 PM 28.4 °F 19.1 °F 26.6 °F 93% 29.87 in 1.8 mi NW 10.4 mph 18.4 mph 0.00 in Snow Light Snow
10:52 PM 30.0 °F 20.5 °F 28.0 °F 92% 29.94 in 1.0 mi WNW 11.5 mph - 0.01 in Snow Light Snow
11:05 PM 30.2 °F 20.8 °F 28.4 °F 93% 29.87 in 2.5 mi WNW 11.5 mph - 0.01 in Snow Light Snow
11:15 PM 30.2 °F 20.2 °F 28.4 °F 93% 29.88 in 2.0 mi WNW 12.7 mph - 0.01 in Snow Light Snow
11:18 PM 30.2 °F 19.8 °F 28.4 °F 93% 29.88 in 2.5 mi WNW 13.8 mph - 0.01 in Snow Light Snow
11:26 PM 30.2 °F 20.8 °F 28.4 °F 93% 29.88 in 5.0 mi NW 11.5 mph 19.6 mph 0.01 in Snow Light Snow
11:52 PM 32.0 °F 21.6 °F 27.0 °F 82% 29.95 in 10.0 mi NW 15.0 mph 23.0 mph 0.01 in   Overcast